Time,TemperatureF,DewpointF,PressureIn,WindDirection,WindDirectionDegrees,WindSpeedMPH,WindSpeedGustMPH,Humidity,HourlyPrecipIn,Conditions,Clouds,dailyrainin,SoftwareType,DateUTC
2013-04-15 00:03:00,78.8,-99.9,30.29,North,-999,-999.0,-999.0,41,-99.99,,,-99.99,,2013-04-14 22:03:00,
2013-04-15 00:09:00,78.8,-99.9,30.29,North,-999,-999.0,-999.0,41,-99.99,,,-99.99,,2013-04-14 22:09:00,
2013-04-15 00:15:00,78.8,-99.9,30.29,North,-999,-999.0,-999.0,41,-99.99,,,-99.99,,2013-04-14 22:15:00,
2013-04-15 00:22:00,78.8,-99.9,30.29,North,-999,-999.0,-999.0,41,-99.99,,,-99.99,,2013-04-14 22:22:00,
2013-04-15 00:27:00,78.8,-99.9,30.28,North,-999,-999.0,-999.0,41,-99.99,,,-99.99,,2013-04-14 22:27:00,
2013-04-15 00:33:00,78.8,-99.9,30.29,North,-999,-999.0,-999.0,41,-99.99,,,-99.99,,2013-04-14 22:33:00,
2013-04-15 00:39:00,78.8,-99.9,30.29,North,-999,-999.0,-999.0,43,-99.99,,,-99.99,,2013-04-14 22:39:00,
2013-04-15 00:45:00,78.8,-99.9,30.29,North,-999,-999.0,-999.0,42,-99.99,,,-99.99,,2013-04-14 22:45:00,
2013-04-15 00:51:00,78.6,-99.9,30.29,North,-999,-999.0,-999.0,39,-99.99,,,-99.99,,2013-04-14 22:51:00,
2013-04-15 00:57:00,78.6,-99.9,30.29,North,-999,-999.0,-999.0,37,-99.99,,,-99.99,,2013-04-14 22:57:00,
2013-04-15 01:03:00,78.4,-99.9,30.29,North,-999,-999.0,-999.0,37,-99.99,,,-99.99,,2013-04-14 23:03:00,
2013-04-15 01:09:00,78.2,-99.9,30.29,North,-999,-999.0,-999.0,36,-99.99,,,-99.99,,2013-04-14 23:09:00,
2013-04-15 01:15:00,78.0,-99.9,30.29,North,-999,-999.0,-999.0,36,-99.99,,,-99.99,,2013-04-14 23:15:00,
2013-04-15 01:21:00,78.0,-99.9,30.29,North,-999,-999.0,-999.0,35,-99.99,,,-99.99,,2013-04-14 23:21:00,
2013-04-15 01:27:00,78.0,-99.9,30.28,North,-999,-999.0,-999.0,35,-99.99,,,-99.99,,2013-04-14 23:27:00,
2013-04-15 01:33:00,78.0,-99.9,30.28,North,-999,-999.0,-999.0,36,-99.99,,,-99.99,,2013-04-14 23:33:00,
2013-04-15 01:39:00,77.9,-99.9,30.28,North,-999,-999.0,-999.0,36,-99.99,,,-99.99,,2013-04-14 23:39:00,
2013-04-15 01:45:00,78.0,-99.9,30.28,North,-999,-999.0,-999.0,36,-99.99,,,-99.99,,2013-04-14 23:45:00,
2013-04-15 01:51:00,78.0,-99.9,30.28,North,-999,-999.0,-999.0,37,-99.99,,,-99.99,,2013-04-14 23:51:00,
2013-04-15 01:57:00,78.0,-99.9,30.28,North,-999,-999.0,-999.0,37,-99.99,,,-99.99,,2013-04-14 23:57:00,
2013-04-15 02:03:00,78.0,-99.9,30.28,North,-999,-999.0,-999.0,37,-99.99,,,-99.99,,2013-04-15 00:03:00,
2013-04-15 02:09:00,78.0,-99.9,30.28,North,-999,-999.0,-999.0,37,-99.99,,,-99.99,,2013-04-15 00:09:00,
2013-04-15 02:15:00,78.0,-99.9,30.27,North,-999,-999.0,-999.0,37,-99.99,,,-99.99,,2013-04-15 00:15:00,
2013-04-15 02:21:00,78.0,-99.9,30.28,North,-999,-999.0,-999.0,37,-99.99,,,-99.99,,2013-04-15 00:21:00,
2013-04-15 02:27:00,78.0,-99.9,30.28,North,-999,-999.0,-999.0,37,-99.99,,,-99.99,,2013-04-15 00:27:00,
2013-04-15 02:33:00,78.0,-99.9,30.28,North,-999,-999.0,-999.0,38,-99.99,,,-99.99,,2013-04-15 00:33:00,
2013-04-15 02:39:00,78.0,-99.9,30.27,North,-999,-999.0,-999.0,38,-99.99,,,-99.99,,2013-04-15 00:39:00,
2013-04-15 02:45:00,78.0,-99.9,30.27,North,-999,-999.0,-999.0,38,-99.99,,,-99.99,,2013-04-15 00:45:00,
2013-04-15 02:51:00,78.0,-99.9,30.27,North,-999,-999.0,-999.0,38,-99.99,,,-99.99,,2013-04-15 00:51:00,
2013-04-15 02:57:00,78.0,-99.9,30.27,North,-999,-999.0,-999.0,38,-99.99,,,-99.99,,2013-04-15 00:57:00,
2013-04-15 03:05:00,78.0,-99.9,30.27,North,-999,-999.0,-999.0,38,-99.99,,,-99.99,,2013-04-15 01:05:00,
2013-04-15 03:15:00,78.0,-99.9,30.27,North,-999,-999.0,-999.0,38,-99.99,,,-99.99,,2013-04-15 01:15:00,
2013-04-15 03:21:00,78.0,-99.9,30.27,North,-999,-999.0,-999.0,38,-99.99,,,-99.99,,2013-04-15 01:21:00,
2013-04-15 03:27:00,78.0,-99.9,30.27,North,-999,-999.0,-999.0,38,-99.99,,,-99.99,,2013-04-15 01:27:00,
2013-04-15 03:33:00,78.0,-99.9,30.27,North,-999,-999.0,-999.0,38,-99.99,,,-99.99,,2013-04-15 01:33:00,
2013-04-15 03:39:00,78.0,-99.9,30.27,North,-999,-999.0,-999.0,38,-99.99,,,-99.99,,2013-04-15 01:39:00,
2013-04-15 03:45:00,78.0,-99.9,30.27,North,-999,-999.0,-999.0,38,-99.99,,,-99.99,,2013-04-15 01:45:00,
2013-04-15 03:52:00,78.0,-99.9,30.27,North,-999,-999.0,-999.0,38,-99.99,,,-99.99,,2013-04-15 01:52:00,
2013-04-15 03:57:00,78.0,-99.9,30.27,North,-999,-999.0,-999.0,39,-99.99,,,-99.99,,2013-04-15 01:57:00,
2013-04-15 04:05:00,78.0,-99.9,30.27,North,-999,-999.0,-999.0,39,-99.99,,,-99.99,,2013-04-15 02:05:00,
2013-04-15 04:15:00,78.0,-99.9,30.27,North,-999,-999.0,-999.0,39,-99.99,,,-99.99,,2013-04-15 02:15:00,
2013-04-15 04:21:00,78.0,-99.9,30.27,North,-999,-999.0,-999.0,39,-99.99,,,-99.99,,2013-04-15 02:21:00,
2013-04-15 04:27:00,78.0,-99.9,30.27,North,-999,-999.0,-999.0,39,-99.99,,,-99.99,,2013-04-15 02:27:00,
2013-04-15 04:33:00,78.0,-99.9,30.27,North,-999,-999.0,-999.0,39,-99.99,,,-99.99,,2013-04-15 02:33:00,
2013-04-15 04:39:00,78.0,-99.9,30.27,North,-999,-999.0,-999.0,39,-99.99,,,-99.99,,2013-04-15 02:39:00,
2013-04-15 04:45:00,78.0,-99.9,30.27,North,-999,-999.0,-999.0,39,-99.99,,,-99.99,,2013-04-15 02:45:00,
2013-04-15 04:51:00,78.0,-99.9,30.27,North,-999,-999.0,-999.0,39,-99.99,,,-99.99,,2013-04-15 02:51:00,
2013-04-15 04:57:00,78.0,-99.9,30.27,North,-999,-999.0,-999.0,39,-99.99,,,-99.99,,2013-04-15 02:57:00,
2013-04-15 05:05:00,78.0,-99.9,30.27,North,-999,-999.0,-999.0,39,-99.99,,,-99.99,,2013-04-15 03:05:00,
2013-04-15 05:15:00,78.0,-99.9,30.27,North,-999,-999.0,-999.0,39,-99.99,,,-99.99,,2013-04-15 03:15:00,
2013-04-15 05:21:00,78.0,-99.9,30.27,North,-999,-999.0,-999.0,39,-99.99,,,-99.99,,2013-04-15 03:21:00,
2013-04-15 05:27:00,78.0,-99.9,30.27,North,-999,-999.0,-999.0,39,-99.99,,,-99.99,,2013-04-15 03:27:00,
2013-04-15 05:33:00,78.0,-99.9,30.27,North,-999,-999.0,-999.0,39,-99.99,,,-99.99,,2013-04-15 03:33:00,
2013-04-15 05:39:00,78.0,-99.9,30.27,North,-999,-999.0,-999.0,39,-99.99,,,-99.99,,2013-04-15 03:39:00,
2013-04-15 05:45:00,78.0,-99.9,30.27,North,-999,-999.0,-999.0,39,-99.99,,,-99.99,,2013-04-15 03:45:00,
2013-04-15 05:51:00,78.0,-99.9,30.27,North,-999,-999.0,-999.0,39,-99.99,,,-99.99,,2013-04-15 03:51:00,
2013-04-15 05:57:00,78.0,-99.9,30.27,North,-999,-999.0,-999.0,39,-99.99,,,-99.99,,2013-04-15 03:57:00,
2013-04-15 06:05:00,78.0,-99.9,30.27,North,-999,-999.0,-999.0,39,-99.99,,,-99.99,,2013-04-15 04:05:00,
2013-04-15 06:09:00,78.0,-99.9,30.27,North,-999,-999.0,-999.0,39,-99.99,,,-99.99,,2013-04-15 04:09:00,
2013-04-15 06:15:00,78.0,-99.9,30.27,North,-999,-999.0,-999.0,39,-99.99,,,-99.99,,2013-04-15 04:15:00,
2013-04-15 06:22:00,78.0,-99.9,30.27,North,-999,-999.0,-999.0,39,-99.99,,,-99.99,,2013-04-15 04:22:00,
2013-04-15 06:27:00,78.0,-99.9,30.27,North,-999,-999.0,-999.0,39,-99.99,,,-99.99,,2013-04-15 04:27:00,
2013-04-15 06:33:00,78.0,-99.9,30.27,North,-999,-999.0,-999.0,39,-99.99,,,-99.99,,2013-04-15 04:33:00,
2013-04-15 06:39:00,78.0,-99.9,30.27,North,-999,-999.0,-999.0,39,-99.99,,,-99.99,,2013-04-15 04:39:00,
2013-04-15 06:45:00,78.0,-99.9,30.27,North,-999,-999.0,-999.0,39,-99.99,,,-99.99,,2013-04-15 04:45:00,
2013-04-15 06:51:00,78.0,-99.9,30.27,North,-999,-999.0,-999.0,39,-99.99,,,-99.99,,2013-04-15 04:51:00,
2013-04-15 06:57:00,78.0,-99.9,30.27,North,-999,-999.0,-999.0,39,-99.99,,,-99.99,,2013-04-15 04:57:00,
2013-04-15 07:03:00,78.2,-99.9,30.27,North,-999,-999.0,-999.0,39,-99.99,,,-99.99,,2013-04-15 05:03:00,
2013-04-15 07:09:00,78.2,-99.9,30.27,North,-999,-999.0,-999.0,39,-99.99,,,-99.99,,2013-04-15 05:09:00,
2013-04-15 07:15:00,78.4,-99.9,30.27,North,-999,-999.0,-999.0,39,-99.99,,,-99.99,,2013-04-15 05:15:00,
2013-04-15 07:21:00,78.4,-99.9,30.27,North,-999,-999.0,-999.0,39,-99.99,,,-99.99,,2013-04-15 05:21:00,
2013-04-15 07:27:00,78.4,-99.9,30.27,North,-999,-999.0,-999.0,40,-99.99,,,-99.99,,2013-04-15 05:27:00,
2013-04-15 07:33:00,78.4,-99.9,30.27,North,-999,-999.0,-999.0,40,-99.99,,,-99.99,,2013-04-15 05:33:00,
2013-04-15 07:39:00,78.4,-99.9,30.27,North,-999,-999.0,-999.0,40,-99.99,,,-99.99,,2013-04-15 05:39:00,
2013-04-15 07:45:00,78.4,-99.9,30.27,North,-999,-999.0,-999.0,40,-99.99,,,-99.99,,2013-04-15 05:45:00,
2013-04-15 07:51:00,78.6,-99.9,30.27,North,-999,-999.0,-999.0,40,-99.99,,,-99.99,,2013-04-15 05:51:00,
2013-04-15 07:57:00,78.6,-99.9,30.27,North,-999,-999.0,-999.0,40,-99.99,,,-99.99,,2013-04-15 05:57:00,
2013-04-15 08:03:00,78.6,-99.9,30.27,North,-999,-999.0,-999.0,40,-99.99,,,-99.99,,2013-04-15 06:03:00,
2013-04-15 08:09:00,78.6,-99.9,30.27,North,-999,-999.0,-999.0,40,-99.99,,,-99.99,,2013-04-15 06:09:00,
2013-04-15 08:15:00,78.6,-99.9,30.26,North,-999,-999.0,-999.0,40,-99.99,,,-99.99,,2013-04-15 06:15:00,
2013-04-15 08:22:00,78.6,-99.9,30.27,North,-999,-999.0,-999.0,40,-99.99,,,-99.99,,2013-04-15 06:22:00,
2013-04-15 08:28:00,78.6,-99.9,30.27,North,-999,-999.0,-999.0,40,-99.99,,,-99.99,,2013-04-15 06:28:00,
2013-04-15 08:33:00,78.6,-99.9,30.27,North,-999,-999.0,-999.0,40,-99.99,,,-99.99,,2013-04-15 06:33:00,
2013-04-15 08:39:00,78.6,-99.9,30.27,North,-999,-999.0,-999.0,40,-99.99,,,-99.99,,2013-04-15 06:39:00,
2013-04-15 08:45:00,78.4,-99.9,30.27,North,-999,-999.0,-999.0,39,-99.99,,,-99.99,,2013-04-15 06:45:00,
2013-04-15 08:51:00,78.4,-99.9,30.26,North,-999,-999.0,-999.0,39,-99.99,,,-99.99,,2013-04-15 06:51:00,
2013-04-15 08:57:00,78.6,-99.9,30.26,North,-999,-999.0,-999.0,39,-99.99,,,-99.99,,2013-04-15 06:57:00,
2013-04-15 09:03:00,78.6,-99.9,30.26,North,-999,-999.0,-999.0,39,-99.99,,,-99.99,,2013-04-15 07:03:00,
2013-04-15 09:27:00,78.6,-99.9,30.26,North,-999,-999.0,-999.0,39,-99.99,,,-99.99,,2013-04-15 07:27:00,
2013-04-15 09:45:00,78.6,-99.9,30.26,North,-999,-999.0,-999.0,39,-99.99,,,-99.99,,2013-04-15 07:45:00,
2013-04-15 09:51:00,78.6,-99.9,30.26,North,-999,-999.0,-999.0,39,-99.99,,,-99.99,,2013-04-15 07:51:00,
2013-04-15 09:57:00,78.6,-99.9,30.26,North,-999,-999.0,-999.0,39,-99.99,,,-99.99,,2013-04-15 07:57:00,
2013-04-15 10:03:00,78.6,-99.9,30.26,North,-999,-999.0,-999.0,39,-99.99,,,-99.99,,2013-04-15 08:03:00,
2013-04-15 10:09:00,78.6,-99.9,30.26,North,-999,-999.0,-999.0,39,-99.99,,,-99.99,,2013-04-15 08:09:00,
2013-04-15 10:15:00,78.6,-99.9,30.26,North,-999,-999.0,-999.0,39,-99.99,,,-99.99,,2013-04-15 08:15:00,
2013-04-15 10:21:00,78.6,-99.9,30.26,North,-999,-999.0,-999.0,39,-99.99,,,-99.99,,2013-04-15 08:21:00,
2013-04-15 10:27:00,78.6,-99.9,30.25,North,-999,-999.0,-999.0,39,-99.99,,,-99.99,,2013-04-15 08:27:00,
2013-04-15 10:33:00,78.6,-99.9,30.25,North,-999,-999.0,-999.0,39,-99.99,,,-99.99,,2013-04-15 08:33:00,
2013-04-15 10:40:00,78.6,-99.9,30.25,North,-999,-999.0,-999.0,39,-99.99,,,-99.99,,2013-04-15 08:40:00,
2013-04-15 10:45:00,78.6,-99.9,30.25,North,-999,-999.0,-999.0,39,-99.99,,,-99.99,,2013-04-15 08:45:00,
2013-04-15 10:51:00,78.6,-99.9,30.25,North,-999,-999.0,-999.0,39,-99.99,,,-99.99,,2013-04-15 08:51:00,
2013-04-15 10:57:00,78.6,-99.9,30.24,North,-999,-999.0,-999.0,39,-99.99,,,-99.99,,2013-04-15 08:57:00,
2013-04-15 11:03:00,78.6,-99.9,30.24,North,-999,-999.0,-999.0,39,-99.99,,,-99.99,,2013-04-15 09:03:00,
2013-04-15 11:09:00,78.6,-99.9,30.24,North,-999,-999.0,-999.0,39,-99.99,,,-99.99,,2013-04-15 09:09:00,
2013-04-15 11:15:00,78.6,-99.9,30.24,North,-999,-999.0,-999.0,39,-99.99,,,-99.99,,2013-04-15 09:15:00,
2013-04-15 11:21:00,78.6,-99.9,30.23,North,-999,-999.0,-999.0,39,-99.99,,,-99.99,,2013-04-15 09:21:00,
2013-04-15 11:27:00,78.6,-99.9,30.23,North,-999,-999.0,-999.0,39,-99.99,,,-99.99,,2013-04-15 09:27:00,
2013-04-15 11:33:00,78.6,-99.9,30.23,North,-999,-999.0,-999.0,39,-99.99,,,-99.99,,2013-04-15 09:33:00,
2013-04-15 11:39:00,78.6,-99.9,30.23,North,-999,-999.0,-999.0,39,-99.99,,,-99.99,,2013-04-15 09:39:00,
2013-04-15 11:45:00,78.6,-99.9,30.23,North,-999,-999.0,-999.0,39,-99.99,,,-99.99,,2013-04-15 09:45:00,
2013-04-15 11:51:00,78.6,-99.9,30.23,North,-999,-999.0,-999.0,39,-99.99,,,-99.99,,2013-04-15 09:51:00,
2013-04-15 11:57:00,78.6,-99.9,30.23,North,-999,-999.0,-999.0,39,-99.99,,,-99.99,,2013-04-15 09:57:00,
2013-04-15 12:03:00,78.6,-99.9,30.23,North,-999,-999.0,-999.0,39,-99.99,,,-99.99,,2013-04-15 10:03:00,
2013-04-15 12:09:00,78.6,-99.9,30.23,North,-999,-999.0,-999.0,39,-99.99,,,-99.99,,2013-04-15 10:09:00,
2013-04-15 12:15:00,78.6,-99.9,30.23,North,-999,-999.0,-999.0,39,-99.99,,,-99.99,,2013-04-15 10:15:00,
2013-04-15 12:21:00,78.6,-99.9,30.23,North,-999,-999.0,-999.0,39,-99.99,,,-99.99,,2013-04-15 10:21:00,
2013-04-15 12:27:00,78.6,-99.9,30.23,North,-999,-999.0,-999.0,39,-99.99,,,-99.99,,2013-04-15 10:27:00,
2013-04-15 12:33:00,78.6,-99.9,30.22,North,-999,-999.0,-999.0,39,-99.99,,,-99.99,,2013-04-15 10:33:00,
2013-04-15 12:39:00,78.8,-99.9,30.23,North,-999,-999.0,-999.0,39,-99.99,,,-99.99,,2013-04-15 10:39:00,
2013-04-15 12:45:00,78.6,-99.9,30.23,North,-999,-999.0,-999.0,39,-99.99,,,-99.99,,2013-04-15 10:45:00,
2013-04-15 12:52:00,78.8,-99.9,30.22,North,-999,-999.0,-999.0,39,-99.99,,,-99.99,,2013-04-15 10:52:00,
2013-04-15 12:57:00,78.6,-99.9,30.22,North,-999,-999.0,-999.0,39,-99.99,,,-99.99,,2013-04-15 10:57:00,
2013-04-15 13:03:00,78.6,-99.9,30.22,North,-999,-999.0,-999.0,39,-99.99,,,-99.99,,2013-04-15 11:03:00,
2013-04-15 13:09:00,78.8,-99.9,30.21,North,-999,-999.0,-999.0,39,-99.99,,,-99.99,,2013-04-15 11:09:00,
2013-04-15 13:15:00,78.6,-99.9,30.21,North,-999,-999.0,-999.0,39,-99.99,,,-99.99,,2013-04-15 11:15:00,
2013-04-15 13:21:00,78.6,-99.9,30.21,North,-999,-999.0,-999.0,39,-99.99,,,-99.99,,2013-04-15 11:21:00,
2013-04-15 13:27:00,78.8,-99.9,30.21,North,-999,-999.0,-999.0,39,-99.99,,,-99.99,,2013-04-15 11:27:00,
2013-04-15 13:33:00,78.8,-99.9,30.21,North,-999,-999.0,-999.0,39,-99.99,,,-99.99,,2013-04-15 11:33:00,
2013-04-15 13:39:00,78.8,-99.9,30.21,North,-999,-999.0,-999.0,39,-99.99,,,-99.99,,2013-04-15 11:39:00,
2013-04-15 13:45:00,78.8,-99.9,30.20,North,-999,-999.0,-999.0,39,-99.99,,,-99.99,,2013-04-15 11:45:00,
2013-04-15 13:51:00,78.8,-99.9,30.20,North,-999,-999.0,-999.0,39,-99.99,,,-99.99,,2013-04-15 11:51:00,
2013-04-15 13:57:00,78.8,-99.9,30.20,North,-999,-999.0,-999.0,39,-99.99,,,-99.99,,2013-04-15 11:57:00,
2013-04-15 14:03:00,78.8,-99.9,30.20,North,-999,-999.0,-999.0,39,-99.99,,,-99.99,,2013-04-15 12:03:00,
2013-04-15 14:09:00,78.8,-99.9,30.19,North,-999,-999.0,-999.0,39,-99.99,,,-99.99,,2013-04-15 12:09:00,
2013-04-15 14:15:00,78.8,-99.9,30.19,North,-999,-999.0,-999.0,39,-99.99,,,-99.99,,2013-04-15 12:15:00,
2013-04-15 14:21:00,78.8,-99.9,30.18,North,-999,-999.0,-999.0,39,-99.99,,,-99.99,,2013-04-15 12:21:00,
2013-04-15 14:27:00,78.8,-99.9,30.18,North,-999,-999.0,-999.0,39,-99.99,,,-99.99,,2013-04-15 12:27:00,
2013-04-15 14:34:00,78.8,-99.9,30.18,North,-999,-999.0,-999.0,39,-99.99,,,-99.99,,2013-04-15 12:34:00,
2013-04-15 14:39:00,78.8,-99.9,30.17,North,-999,-999.0,-999.0,39,-99.99,,,-99.99,,2013-04-15 12:39:00,
2013-04-15 14:45:00,78.8,-99.9,30.17,North,-999,-999.0,-999.0,39,-99.99,,,-99.99,,2013-04-15 12:45:00,
2013-04-15 14:52:00,78.8,-99.9,30.17,North,-999,-999.0,-999.0,39,-99.99,,,-99.99,,2013-04-15 12:52:00,
2013-04-15 15:02:00,78.8,-99.9,30.16,North,-999,-999.0,-999.0,39,-99.99,,,-99.99,,2013-04-15 13:02:00,
2013-04-15 15:09:00,78.8,-99.9,30.16,North,-999,-999.0,-999.0,39,-99.99,,,-99.99,,2013-04-15 13:09:00,
2013-04-15 15:15:00,78.8,-99.9,30.16,North,-999,-999.0,-999.0,39,-99.99,,,-99.99,,2013-04-15 13:15:00,
2013-04-15 15:21:00,78.8,-99.9,30.16,North,-999,-999.0,-999.0,39,-99.99,,,-99.99,,2013-04-15 13:21:00,
2013-04-15 15:27:00,78.8,-99.9,30.16,North,-999,-999.0,-999.0,39,-99.99,,,-99.99,,2013-04-15 13:27:00,
2013-04-15 15:33:00,78.8,-99.9,30.16,North,-999,-999.0,-999.0,39,-99.99,,,-99.99,,2013-04-15 13:33:00,
2013-04-15 15:40:00,78.8,-99.9,30.15,North,-999,-999.0,-999.0,39,-99.99,,,-99.99,,2013-04-15 13:40:00,
2013-04-15 15:45:00,78.8,-99.9,30.15,North,-999,-999.0,-999.0,39,-99.99,,,-99.99,,2013-04-15 13:45:00,
2013-04-15 15:52:00,78.8,-99.9,30.15,North,-999,-999.0,-999.0,39,-99.99,,,-99.99,,2013-04-15 13:52:00,
2013-04-15 15:57:00,78.8,-99.9,30.15,North,-999,-999.0,-999.0,39,-99.99,,,-99.99,,2013-04-15 13:57:00,
2013-04-15 16:03:00,78.8,-99.9,30.15,North,-999,-999.0,-999.0,39,-99.99,,,-99.99,,2013-04-15 14:03:00,
2013-04-15 16:09:00,78.8,-99.9,30.15,North,-999,-999.0,-999.0,39,-99.99,,,-99.99,,2013-04-15 14:09:00,
2013-04-15 16:15:00,78.8,-99.9,30.14,North,-999,-999.0,-999.0,39,-99.99,,,-99.99,,2013-04-15 14:15:00,
2013-04-15 16:21:00,78.8,-99.9,30.14,North,-999,-999.0,-999.0,39,-99.99,,,-99.99,,2013-04-15 14:21:00,
2013-04-15 16:27:00,78.8,-99.9,30.14,North,-999,-999.0,-999.0,39,-99.99,,,-99.99,,2013-04-15 14:27:00,
2013-04-15 16:33:00,78.8,-99.9,30.13,North,-999,-999.0,-999.0,39,-99.99,,,-99.99,,2013-04-15 14:33:00,
2013-04-15 16:39:00,78.8,-99.9,30.13,North,-999,-999.0,-999.0,39,-99.99,,,-99.99,,2013-04-15 14:39:00,
2013-04-15 16:45:00,78.8,-99.9,30.13,North,-999,-999.0,-999.0,39,-99.99,,,-99.99,,2013-04-15 14:45:00,
2013-04-15 16:51:00,78.8,-99.9,30.13,North,-999,-999.0,-999.0,39,-99.99,,,-99.99,,2013-04-15 14:51:00,
2013-04-15 16:57:00,78.8,-99.9,30.13,North,-999,-999.0,-999.0,39,-99.99,,,-99.99,,2013-04-15 14:57:00,
2013-04-15 17:03:00,78.9,-99.9,30.13,North,-999,-999.0,-999.0,39,-99.99,,,-99.99,,2013-04-15 15:03:00,
2013-04-15 17:09:00,78.9,-99.9,30.13,North,-999,-999.0,-999.0,39,-99.99,,,-99.99,,2013-04-15 15:09:00,
2013-04-15 17:15:00,78.8,-99.9,30.12,North,-999,-999.0,-999.0,39,-99.99,,,-99.99,,2013-04-15 15:15:00,
2013-04-15 17:21:00,78.9,-99.9,30.13,North,-999,-999.0,-999.0,38,-99.99,,,-99.99,,2013-04-15 15:21:00,
2013-04-15 17:27:00,78.9,-99.9,30.13,North,-999,-999.0,-999.0,38,-99.99,,,-99.99,,2013-04-15 15:27:00,
2013-04-15 17:33:00,78.9,-99.9,30.13,North,-999,-999.0,-999.0,38,-99.99,,,-99.99,,2013-04-15 15:33:00,
2013-04-15 17:39:00,78.9,-99.9,30.12,North,-999,-999.0,-999.0,39,-99.99,,,-99.99,,2013-04-15 15:39:00,
2013-04-15 17:45:00,78.9,-99.9,30.13,North,-999,-999.0,-999.0,38,-99.99,,,-99.99,,2013-04-15 15:45:00,
2013-04-15 17:52:00,79.1,-99.9,30.13,North,-999,-999.0,-999.0,38,-99.99,,,-99.99,,2013-04-15 15:52:00,
2013-04-15 17:57:00,78.9,-99.9,30.13,North,-999,-999.0,-999.0,38,-99.99,,,-99.99,,2013-04-15 15:57:00,
2013-04-15 18:03:00,78.9,-99.9,30.13,North,-999,-999.0,-999.0,38,-99.99,,,-99.99,,2013-04-15 16:03:00,
2013-04-15 18:09:00,78.9,-99.9,30.13,North,-999,-999.0,-999.0,38,-99.99,,,-99.99,,2013-04-15 16:09:00,
2013-04-15 18:15:00,78.9,-99.9,30.12,North,-999,-999.0,-999.0,38,-99.99,,,-99.99,,2013-04-15 16:15:00,
2013-04-15 18:22:00,78.9,-99.9,30.12,North,-999,-999.0,-999.0,38,-99.99,,,-99.99,,2013-04-15 16:22:00,
2013-04-15 18:27:00,78.8,-99.9,30.13,North,-999,-999.0,-999.0,37,-99.99,,,-99.99,,2013-04-15 16:27:00,
2013-04-15 18:33:00,78.8,-99.9,30.13,North,-999,-999.0,-999.0,37,-99.99,,,-99.99,,2013-04-15 16:33:00,
2013-04-15 18:39:00,78.8,-99.9,30.13,North,-999,-999.0,-999.0,36,-99.99,,,-99.99,,2013-04-15 16:39:00,
2013-04-15 18:47:00,78.8,-99.9,30.13,North,-999,-999.0,-999.0,36,-99.99,,,-99.99,,2013-04-15 16:47:00,
2013-04-15 18:57:00,78.8,-99.9,30.13,North,-999,-999.0,-999.0,36,-99.99,,,-99.99,,2013-04-15 16:57:00,
2013-04-15 19:03:00,78.8,-99.9,30.13,North,-999,-999.0,-999.0,36,-99.99,,,-99.99,,2013-04-15 17:03:00,
2013-04-15 19:09:00,78.8,-99.9,30.13,North,-999,-999.0,-999.0,36,-99.99,,,-99.99,,2013-04-15 17:09:00,
2013-04-15 19:15:00,78.8,-99.9,30.13,North,-999,-999.0,-999.0,36,-99.99,,,-99.99,,2013-04-15 17:15:00,
2013-04-15 19:21:00,78.8,-99.9,30.13,North,-999,-999.0,-999.0,36,-99.99,,,-99.99,,2013-04-15 17:21:00,
2013-04-15 19:27:00,78.8,-99.9,30.13,North,-999,-999.0,-999.0,36,-99.99,,,-99.99,,2013-04-15 17:27:00,
2013-04-15 19:33:00,78.8,-99.9,30.13,North,-999,-999.0,-999.0,37,-99.99,,,-99.99,,2013-04-15 17:33:00,
2013-04-15 19:39:00,78.8,-99.9,30.14,North,-999,-999.0,-999.0,37,-99.99,,,-99.99,,2013-04-15 17:39:00,
2013-04-15 19:45:00,78.8,-99.9,30.14,North,-999,-999.0,-999.0,37,-99.99,,,-99.99,,2013-04-15 17:45:00,
2013-04-15 19:51:00,78.8,-99.9,30.13,North,-999,-999.0,-999.0,36,-99.99,,,-99.99,,2013-04-15 17:51:00,
2013-04-15 19:57:00,78.8,-99.9,30.13,North,-999,-999.0,-999.0,36,-99.99,,,-99.99,,2013-04-15 17:57:00,
2013-04-15 20:03:00,78.8,-99.9,30.14,North,-999,-999.0,-999.0,37,-99.99,,,-99.99,,2013-04-15 18:03:00,
2013-04-15 20:09:00,78.8,-99.9,30.14,North,-999,-999.0,-999.0,36,-99.99,,,-99.99,,2013-04-15 18:09:00,
2013-04-15 20:15:00,78.8,-99.9,30.14,North,-999,-999.0,-999.0,36,-99.99,,,-99.99,,2013-04-15 18:15:00,
2013-04-15 20:22:00,78.8,-99.9,30.14,North,-999,-999.0,-999.0,36,-99.99,,,-99.99,,2013-04-15 18:22:00,
2013-04-15 20:27:00,78.8,-99.9,30.14,North,-999,-999.0,-999.0,36,-99.99,,,-99.99,,2013-04-15 18:27:00,
2013-04-15 20:33:00,78.8,-99.9,30.14,North,-999,-999.0,-999.0,36,-99.99,,,-99.99,,2013-04-15 18:33:00,
2013-04-15 20:39:00,78.8,-99.9,30.14,North,-999,-999.0,-999.0,36,-99.99,,,-99.99,,2013-04-15 18:39:00,
2013-04-15 20:45:00,78.8,-99.9,30.14,North,-999,-999.0,-999.0,36,-99.99,,,-99.99,,2013-04-15 18:45:00,
2013-04-15 20:51:00,78.8,-99.9,30.14,North,-999,-999.0,-999.0,36,-99.99,,,-99.99,,2013-04-15 18:51:00,
2013-04-15 20:57:00,78.8,-99.9,30.14,North,-999,-999.0,-999.0,36,-99.99,,,-99.99,,2013-04-15 18:57:00,
2013-04-15 21:03:00,78.8,-99.9,30.14,North,-999,-999.0,-999.0,36,-99.99,,,-99.99,,2013-04-15 19:03:00,
2013-04-15 21:09:00,78.8,-99.9,30.15,North,-999,-999.0,-999.0,36,-99.99,,,-99.99,,2013-04-15 19:09:00,
2013-04-15 21:15:00,78.8,-99.9,30.15,North,-999,-999.0,-999.0,36,-99.99,,,-99.99,,2013-04-15 19:15:00,
2013-04-15 21:21:00,78.8,-99.9,30.15,North,-999,-999.0,-999.0,36,-99.99,,,-99.99,,2013-04-15 19:21:00,
2013-04-15 21:27:00,78.8,-99.9,30.15,North,-999,-999.0,-999.0,36,-99.99,,,-99.99,,2013-04-15 19:27:00,
2013-04-15 21:33:00,78.8,-99.9,30.15,North,-999,-999.0,-999.0,36,-99.99,,,-99.99,,2013-04-15 19:33:00,
2013-04-15 21:39:00,78.8,-99.9,30.15,North,-999,-999.0,-999.0,36,-99.99,,,-99.99,,2013-04-15 19:39:00,
2013-04-15 21:46:00,78.8,-99.9,30.15,North,-999,-999.0,-999.0,36,-99.99,,,-99.99,,2013-04-15 19:46:00,
2013-04-15 21:52:00,78.8,-99.9,30.15,North,-999,-999.0,-999.0,36,-99.99,,,-99.99,,2013-04-15 19:52:00,
2013-04-15 21:57:00,78.8,-99.9,30.15,North,-999,-999.0,-999.0,36,-99.99,,,-99.99,,2013-04-15 19:57:00,
2013-04-15 22:03:00,78.8,-99.9,30.15,North,-999,-999.0,-999.0,36,-99.99,,,-99.99,,2013-04-15 20:03:00,
2013-04-15 22:09:00,78.8,-99.9,30.15,North,-999,-999.0,-999.0,36,-99.99,,,-99.99,,2013-04-15 20:09:00,
2013-04-15 22:15:00,78.8,-99.9,30.15,North,-999,-999.0,-999.0,36,-99.99,,,-99.99,,2013-04-15 20:15:00,
2013-04-15 22:21:00,78.8,-99.9,30.15,North,-999,-999.0,-999.0,37,-99.99,,,-99.99,,2013-04-15 20:21:00,
2013-04-15 22:27:00,78.8,-99.9,30.15,North,-999,-999.0,-999.0,37,-99.99,,,-99.99,,2013-04-15 20:27:00,
2013-04-15 22:33:00,78.8,-99.9,30.15,North,-999,-999.0,-999.0,37,-99.99,,,-99.99,,2013-04-15 20:33:00,
2013-04-15 22:39:00,78.8,-99.9,30.15,North,-999,-999.0,-999.0,37,-99.99,,,-99.99,,2013-04-15 20:39:00,
2013-04-15 22:45:00,78.8,-99.9,30.15,North,-999,-999.0,-999.0,37,-99.99,,,-99.99,,2013-04-15 20:45:00,
2013-04-15 22:51:00,78.8,-99.9,30.15,North,-999,-999.0,-999.0,37,-99.99,,,-99.99,,2013-04-15 20:51:00,
2013-04-15 22:57:00,78.8,-99.9,30.15,North,-999,-999.0,-999.0,37,-99.99,,,-99.99,,2013-04-15 20:57:00,
2013-04-15 23:03:00,78.8,-99.9,30.15,North,-999,-999.0,-999.0,37,-99.99,,,-99.99,,2013-04-15 21:03:00,
2013-04-15 23:09:00,78.8,-99.9,30.15,North,-999,-999.0,-999.0,37,-99.99,,,-99.99,,2013-04-15 21:09:00,
2013-04-15 23:15:00,78.8,-99.9,30.15,North,-999,-999.0,-999.0,37,-99.99,,,-99.99,,2013-04-15 21:15:00,
2013-04-15 23:21:00,78.8,-99.9,30.15,North,-999,-999.0,-999.0,37,-99.99,,,-99.99,,2013-04-15 21:21:00,
2013-04-15 23:27:00,78.8,-99.9,30.15,North,-999,-999.0,-999.0,37,-99.99,,,-99.99,,2013-04-15 21:27:00,
2013-04-15 23:33:00,78.8,-99.9,30.15,North,-999,-999.0,-999.0,37,-99.99,,,-99.99,,2013-04-15 21:33:00,
2013-04-15 23:39:00,78.8,-99.9,30.15,North,-999,-999.0,-999.0,37,-99.99,,,-99.99,,2013-04-15 21:39:00,
2013-04-15 23:45:00,78.8,-99.9,30.14,North,-999,-999.0,-999.0,37,-99.99,,,-99.99,,2013-04-15 21:45:00,
2013-04-15 23:51:00,78.9,-99.9,30.14,North,-999,-999.0,-999.0,37,-99.99,,,-99.99,,2013-04-15 21:51:00,
2013-04-15 23:57:00,78.8,-99.9,30.14,North,-999,-999.0,-999.0,37,-99.99,,,-99.99,,2013-04-15 21:57:00,